Location: Ostrava
(49.8330°N, 18.2830°E)
Time: 09:20:27
(UTC+02:00)

Cosmos 1263 Rocket - Visible Passes

Search period start: 21 April 2014 00:00
Search period end: 01 May 2014 00:00
Orbit: 326 x 632 km, 82.9° (Epoch: 20 April)

Date Brightness Start Highest point End Pass type
(mag) Time Alt. Az. Time Alt. Az. Time Alt. Az.
21 Apr 2.5 21:39:48 35° SE 21:40:36 41° E 21:44:15 10° NNE visible
21 Apr 4.7 23:14:00 13° W 23:15:50 17° WNW 23:18:28 10° NNW visible
22 Apr 3.2 21:12:51 21° ESE 21:14:14 26° E 21:17:31 10° NNE visible
22 Apr 4.1 22:47:02 16° WSW 22:49:06 26° WNW 22:52:28 10° N visible
23 Apr 3.8 20:45:44 12° ESE 20:47:51 17° E 20:50:28 10° NE visible
23 Apr 3.3 22:19:56 18° SW 22:22:21 41° WNW 22:26:10 10° N visible
24 Apr 2.4 21:52:40 15° SSW 21:55:35 69° W 21:59:38 10° N visible
25 Apr 2.1 21:25:13 10° S 21:28:49 72° E 21:32:54 10° NNE visible
25 Apr 5.2 23:02:35 10° W 23:04:22 13° WNW 23:06:13 10° NW visible
26 Apr 2.6 20:58:28 10° SSE 21:02:02 44° E 21:05:57 10° NNE visible
26 Apr 4.9 22:34:26 10° WSW 22:37:14 19° WNW 22:40:13 10° NNW visible
27 Apr 3.3 20:31:57 10° SSE 20:35:13 28° E 20:38:47 10° NNE visible
27 Apr 4.3 22:06:41 10° SW 22:10:03 29° WNW 22:13:43 10° N visible
28 Apr 3.5 21:39:10 10° SSW 21:42:52 44° WNW 21:46:56 10° N visible
29 Apr 2.6 21:11:48 10° SSW 21:15:40 73° W 21:19:56 10° N visible
30 Apr 2.3 20:44:34 10° S 20:48:28 71° E 20:52:44 10° NNE visible
30 Apr 5.4 22:21:40 10° W 22:23:57 14° WNW 22:26:18 10° NNW visible
